DW6279 Weather Reports


time (UTC)temp
C
wind
direction
speed
KPH
gust
KPH
rain 1hr
cm
rain 24hr
cm
rain mn
cm
humidity
%
barometer
mb
20260507140516 12 0.0 0.0 0.00 0.20 0.20 66 1014.1
20260507135516 12 0.0 0.0 0.00 0.20 0.20 67 1014.1
20260507134516 12 0.0 0.0 0.00 0.20 0.20 68 1014.2
20260507133516 12 0.0 0.0 0.00 0.20 0.20 70 1014.4
20260507132516 12 0.0 0.0 0.00 0.20 0.20 70 1014.0
20260507131516 12 0.0 0.0 0.00 0.20 0.20 72 1014.1
20260507130516 12 0.0 0.0 0.00 0.20 0.20 77 1013.9
20260507125516 12 0.0 0.0 0.00 0.20 0.20 81 1013.9
20260507124516 12 0.0 0.0 0.00 0.20 0.20 84 1014.1
20260507123516 12 0.0 0.0 0.00 0.20 0.20 84 1014.2
20260507122516 11 0.0 0.0 0.00 0.20 0.20 84 1014.0
20260507121516 11 0.0 0.0 0.00 0.20 0.20 84 1014.0
20260507120516 11 0.0 0.0 0.00 0.20 0.20 84 1013.9
20260507115515 11 0.0 0.0 0.00 0.20 0.20 85 1013.9
20260507114516 11 0.0 0.0 0.00 0.20 0.20 86 1013.7
20260507113516 11 0.0 0.0 0.00 0.20 0.20 88 1013.6
20260507112516 11 0.0 0.0 0.00 0.20 0.20 89 1013.6
20260507111516 11 0.0 0.0 0.00 0.20 0.20 90 1013.4
20260507110516 12 0.0 0.0 0.00 0.20 0.20 90 1013.4
20260507105516 12 0.0 0.0 0.00 0.20 0.20 91 1013.6
20260507104516 12 0.0 0.0 0.00 0.20 0.20 91 1013.3
20260507103516 12 0.0 0.0 0.00 0.20 0.20 90 1013.2
20260507102516 12 0.0 0.0 0.00 0.20 0.20 90 1013.1
20260507101516 12 0.0 0.0 0.00 0.20 0.20 90 1013.0
20260507100516 12 0.0 0.0 0.00 0.20 0.20 90 1013.1
20260507095536 12 0.0 0.0 0.00 0.20 0.20 91 1013.0
20260507094516 12 0.0 0.0 0.00 0.20 0.20 91 1013.0
20260507093516 12 0.0 0.0 0.00 0.20 0.20 91 1013.0
20260507092516 12 0.0 0.0 0.00 0.20 0.20 91 1012.7
20260507091515 12 0.0 0.0 0.00 0.20 0.20 91 1012.8
20260507090516 12 0.0 0.0 0.00 0.20 0.20 91 1012.8
20260507085516 12 0.0 0.0 0.00 0.20 0.20 91 1012.8
20260507084516 12 0.0 0.0 0.00 0.20 0.20 90 1012.7
20260507083516 12 0.0 0.0 0.00 0.20 0.20 91 1012.8
20260507082516 12 0.0 0.0 0.00 0.20 0.20 90 1012.5
20260507081515 12 0.0 0.0 0.00 0.20 0.20 90 1012.3
20260507080516 12 0.0 0.0 0.03 0.20 0.20 90 1012.0
20260507075536 12 0.0 0.0 0.03 0.20 0.20 90 1011.9
20260507074516 12 0.0 6.4 0.03 0.20 0.20 90 1011.9
20260507073515 12 0.0 3.2 0.03 0.20 0.20 90 1011.7
20260507072516 13 0.0 0.0 0.03 0.20 0.20 91 1011.6
20260507071516 13 0.0 0.0 0.03 0.20 0.20 91 1011.7
20260507070515 13 0.0 0.0 0.00 0.18 0.18 91 1011.7
20260507065516 13 0.0 0.0 0.00 0.18 0.18 91 1011.7
20260507064516 13 0.0 0.0 0.00 0.18 0.18 90 1011.9
20260507063516 13 0.0 0.0 0.00 0.18 0.18 90 1011.9
20260507062516 13 0.0 0.0 0.00 0.18 0.18 90 1011.8
20260507061515 13 0.0 0.0 0.00 0.18 0.18 90 1011.6
20260507060516 13 0.0 0.0 0.03 0.18 0.18 89 1011.6
20260507055516 13 0.0 0.0 0.03 0.18 0.18 89 1011.9
20260507054515 13 0.0 0.0 0.10 0.18 0.18 88 1011.8
20260507053516 14 0.0 0.0 0.10 0.18 0.18 88 1011.9
20260507052536 14 0.0 0.0 0.18 0.18 0.18 87 1011.9
20260507051516 14 0.0 0.0 0.18 0.18 0.18 86 1011.5
20260507050515 14 0.0 0.0 0.15 0.15 0.15 85 1011.8
20260507045516 15 0.0 0.0 0.15 0.15 0.15 83 1012.4
20260507044515 15 0.0 0.0 0.08 0.08 0.08 82 1011.8
20260507043515 16 0.0 0.0 0.08 0.08 0.08 79 1011.7
20260507042516 16 0.0 0.0 0.00 0.00 0.00 78 1012.1
20260507041515 16 0.0 0.0 0.00 0.00 0.00 77 1012.0
20260507040516 16 0.0 0.0 0.00 0.00 0.00 77 1011.7
20260507035516 17 0.0 0.0 0.00 0.00 0.00 77 1011.3
20260507034516 17 0.0 0.0 0.00 0.00 0.00 76 1011.2
20260507033517 17 0.0 0.0 0.00 0.00 0.00 76 1011.3
20260507032517 17 0.0 0.0 0.00 0.00 0.00 75 1011.4
20260507031516 17 0.0 0.0 0.00 0.00 0.00 75 1011.3
20260507030517 17 0.0 0.0 0.00 0.00 0.00 75 1010.8
20260507025516 17 0.0 0.0 0.00 0.00 0.00 75 1010.8
20260507024517 18 0.0 0.0 0.00 0.00 0.00 76 1011.1
20260507023517 18 0.0 4.8 0.00 0.00 0.00 76 1010.9
20260507022516 18 0.0 8.0 0.00 0.00 0.00 76 1010.7
20260507021517 18 0.0 0.0 0.00 0.00 0.00 77 1010.8
20260507020516 18 0.0 0.0 0.00 0.00 0.00 78 1010.6
20260507015516 18 0.0 0.0 0.00 0.00 0.00 78 1010.3
20260507014516 19 0.0 0.0 0.00 0.00 0.00 79 1010.5
20260507013517 19 0.0 0.0 0.00 0.00 0.00 80 1010.7
20260507012516 20 248 3.2 19.3 0.00 0.00 0.00 81 1010.7
20260507011516 20 0.0 0.0 0.00 0.00 0.00 81 1010.5
20260507010516 20 0.0 0.0 0.00 0.00 0.00 81 1010.4
20260507005516 20 0.0 0.0 0.00 0.00 0.00 80 1010.7
20260507004517 20 0.0 0.0 0.00 0.00 0.00 80 1010.4
20260507003516 20 0.0 0.0 0.00 0.00 0.00 80 1010.2
20260507002516 20 0.0 0.0 0.00 0.00 0.00 79 1010.3
20260507001517 20 0.0 0.0 0.00 0.00 0.00 79 1010.0
20260507000516 20 0.0 0.0 0.00 0.00 0.00 79 1010.1
20260506235516 20 0.0 0.0 0.00 0.00 0.00 78 1010.1
20260506234516 20 0.0 0.0 0.00 0.00 0.00 78 1010.2
20260506233517 20 0.0 0.0 0.00 0.00 0.00 77 1009.8
20260506232516 20 0.0 0.0 0.00 0.00 0.00 77 1009.7
20260506231516 20 0.0 6.4 0.00 0.00 0.00 77 1009.6
20260506230516 20 0.0 6.4 0.00 0.00 0.00 77 1009.6
20260506225516 20 0.0 0.0 0.00 0.00 0.00 77 1009.3
20260506224516 20 180 1.6 11.3 0.00 0.00 0.00 77 1009.5
20260506223516 21 225 4.8 17.7 0.00 0.00 0.00 76 1009.5
20260506222516 21 135 1.6 6.4 0.00 0.00 0.00 76 1009.3
20260506221516 21 225 1.6 11.3 0.00 0.00 0.00 76 1009.3
20260506220516 21 203 1.6 9.7 0.00 0.00 0.00 76 1009.2
20260506215516 21 248 1.6 9.7 0.00 0.00 0.00 76 1009.3
20260506214516 21 225 3.2 9.7 0.00 0.00 0.00 75 1009.3
20260506213516 21 203 1.6 9.7 0.00 0.00 0.00 74 1009.3
20260506212516 21 248 3.2 17.7 0.00 0.00 0.00 73 1009.2
20260506211516 21 203 1.6 16.1 0.00 0.00 0.00 74 1009.1
20260506210516 21 225 3.2 11.3 0.00 0.00 0.00 75 1009.1
20260506205517 21 135 3.2 12.9 0.00 0.00 0.00 75 1008.8
20260506204516 21 248 4.8 16.1 0.00 0.00 0.00 75 1009.0
20260506203516 21 248 6.4 17.7 0.00 0.00 0.00 75 1008.7
20260506202516 21 135 1.6 14.5 0.00 0.00 0.00 75 1008.9
20260506201516 21 225 3.2 16.1 0.00 0.00 0.00 75 1009.0
20260506200516 21 270 4.8 16.1 0.00 0.00 0.00 75 1009.2
20260506195516 21 270 6.4 20.9 0.00 0.00 0.00 74 1009.1
20260506194516 21 135 1.6 16.1 0.00 0.00 0.00 75 1009.1
20260506193516 21 225 4.8 16.1 0.00 0.00 0.00 74 1009.1
20260506192516 21 135 1.6 12.9 0.00 0.00 0.00 75 1009.3
20260506191516 21 225 4.8 19.3 0.00 0.00 0.00 75 1009.2
20260506190516 20 203 1.6 16.1 0.00 0.00 0.00 78 1009.3
20260506185516 20 203 1.6 9.7 0.00 0.00 0.00 78 1009.3
20260506184516 20 203 3.2 14.5 0.00 0.00 0.00 79 1009.5
20260506183516 20 203 3.2 17.7 0.00 0.00 0.00 79 1009.6
20260506182516 20 180 6.4 20.9 0.00 0.00 0.00 79 1009.9
20260506181516 20 248 1.6 16.1 0.00 0.00 0.00 80 1009.6
20260506180516 19 225 3.2 14.5 0.00 0.00 0.00 82 1010.0
20260506175516 19 225 4.8 19.3 0.00 0.00 0.00 83 1010.0
20260506174516 18 225 4.8 17.7 0.00 0.00 0.00 84 1010.1
20260506173516 18 225 4.8 17.7 0.00 0.00 0.00 85 1010.0
20260506172516 18 225 4.8 17.7 0.00 0.00 0.00 86 1010.0
20260506171516 17 225 3.2 16.1 0.00 0.00 0.00 87 1010.0
20260506170516 17 248 6.4 19.3 0.00 0.00 0.00 88 1010.3
20260506165516 17 158 4.8 22.5 0.00 0.00 0.00 89 1010.3
20260506164516 17 203 3.2 14.5 0.00 0.00 0.00 90 1010.2
20260506163516 17 248 3.2 16.1 0.00 0.00 0.00 91 1010.4
20260506162516 16 203 6.4 19.3 0.00 0.00 0.00 91 1010.5
20260506161516 16 203 3.2 16.1 0.00 0.00 0.00 92 1010.4
20260506160516 16 180 6.4 16.1 0.00 0.00 0.00 92 1010.3
20260506155516 16 158 6.4 16.1 0.00 0.00 0.00 92 1010.5
20260506154516 16 158 8.0 20.9 0.00 0.00 0.00 92 1010.5
20260506153516 16 135 6.4 17.7 0.00 0.00 0.00 92 1010.8
20260506152517 16 203 4.8 19.3 0.00 0.00 0.00 92 1010.7
20260506151516 16 180 4.8 17.7 0.00 0.00 0.00 91 1010.7
20260506150516 16 135 3.2 14.5 0.00 0.00 0.00 91 1010.9
20260506145516 16 225 3.2 16.1 0.00 0.00 0.00 91 1011.4
20260506144516 16 203 3.2 17.7 0.00 0.00 0.00 91 1011.5
20260506143516 16 203 1.6 11.3 0.00 0.00 0.00 90 1011.3
20260506142516 16 203 3.2 14.5 0.00 0.00 0.00 90 1011.4
20260506141516 16 180 4.8 17.7 0.00 0.00 0.00 90 1011.4